Location: La Brionne
(46.1728°N, 1.7849°E)
Time: 08:26:03
(UTC+00:00)

Meteor 1-4 Rocket - Pass Details

Date: 16 June 2021
Orbit: 447 x 499 km, 81.2° (Epoch: 02 August)

Event Time Altitude Azimuth Distance (km) Brightness Sun altitude
Rises 23:39:31 0° 352° (N) 2,494 7.8 -20.4°
Reaches altitude 10° 23:41:39 10° 357° (N) 1,607 6.4 -20.4°
Maximum altitude 23:45:07 59° 77° (ENE) 531 2.7 -20.4°
Enters shadow 23:45:18 57° 95° (E) 537 2.6 -20.4°
